N852SB KSTL-KOKV

Flight info

Callsign N852SB
Flight time N/A
Altitude 29000
Route GATWY1 BIB HICKI SUMET DRUZZ
Aircraft TBM9/L-SDFGRWY/S

Departure

Time N/A
Airport St. Louis Lambert International Airport (KSTL)

Arrival

Time 2026-04-14 23:27
Airport Winchester Regional Airport (KOKV)
Time Latitude Longitude Altitude Speed Heading
2026-04-14 22:03 38.96830 -88.19525 5503 ft 259 kts
2026-04-14 22:03 38.98584 -88.19310 5516 ft 252 kts
2026-04-14 22:03 39.00314 -88.19050 5534 ft 249 kts
2026-04-14 22:04 39.02030 -88.18748 5537 ft 248 kts
2026-04-14 22:04 39.03656 -88.18029 5552 ft 252 kts 30°
2026-04-14 22:04 39.04829 -88.16388 5659 ft 247 kts 66°
2026-04-14 22:04 39.05217 -88.14344 6109 ft 227 kts 93°
2026-04-14 22:05 39.05231 -88.12327 6540 ft 229 kts 94°
2026-04-14 22:05 39.05238 -88.10224 6964 ft 239 kts 94°
2026-04-14 22:05 39.05238 -88.08056 7392 ft 246 kts 94°
2026-04-14 22:05 39.05240 -88.05846 7827 ft 248 kts 94°
2026-04-14 22:06 39.05247 -88.03633 8259 ft 249 kts 94°
2026-04-14 22:06 39.05253 -88.01391 8701 ft 251 kts 94°
2026-04-14 22:06 39.05257 -87.99127 9148 ft 253 kts 94°
2026-04-14 22:06 39.05260 -87.96871 9595 ft 256 kts 93°
2026-04-14 22:07 39.05266 -87.94621 10162 ft 252 kts 93°
2026-04-14 22:07 39.05270 -87.92401 10782 ft 245 kts 93°
2026-04-14 22:07 39.05273 -87.90215 11312 ft 246 kts 93°
2026-04-14 22:07 39.05296 -87.88022 11779 ft 250 kts 87°
2026-04-14 22:08 39.05381 -87.85779 12299 ft 250 kts 93°
2026-04-14 22:08 39.05320 -87.83538 12789 ft 252 kts 95°
2026-04-14 22:08 39.05292 -87.81262 13299 ft 255 kts 92°
2026-04-14 22:08 39.05306 -87.78965 13804 ft 257 kts 91°
2026-04-14 22:09 39.05312 -87.76659 14256 ft 258 kts 91°
2026-04-14 22:09 39.05309 -87.74370 14714 ft 259 kts 91°
2026-04-14 22:09 39.05306 -87.72025 15175 ft 261 kts 91°
2026-04-14 22:09 39.05305 -87.69675 15632 ft 263 kts 91°
2026-04-14 22:10 39.05304 -87.67311 16166 ft 264 kts 91°
2026-04-14 22:10 39.05301 -87.64946 16713 ft 266 kts 91°
2026-04-14 22:10 39.05297 -87.62586 17246 ft 268 kts 91°
2026-04-14 22:10 39.05294 -87.60179 17791 ft 270 kts 91°
2026-04-14 22:11 39.05289 -87.57751 18316 ft 272 kts 91°
2026-04-14 22:11 39.05285 -87.55300 18765 ft 275 kts 91°
2026-04-14 22:11 39.05279 -87.52827 19209 ft 277 kts 91°
2026-04-14 22:11 39.05273 -87.50364 19647 ft 281 kts 91°
2026-04-14 22:12 39.05267 -87.47828 20092 ft 283 kts 91°
2026-04-14 22:12 39.05260 -87.45276 20533 ft 287 kts 91°
2026-04-14 22:12 39.05251 -87.42677 20972 ft 290 kts 91°
2026-04-14 22:12 39.05244 -87.40099 21412 ft 293 kts 91°
2026-04-14 22:13 39.05234 -87.37456 21858 ft 296 kts 91°
2026-04-14 22:13 39.05224 -87.34788 22315 ft 299 kts 91°
2026-04-14 22:13 39.05213 -87.32091 22755 ft 302 kts 91°
2026-04-14 22:13 39.05202 -87.29404 23198 ft 305 kts 91°
2026-04-14 22:14 39.05190 -87.26660 23624 ft 308 kts 91°
2026-04-14 22:14 39.05177 -87.23871 24010 ft 310 kts 91°
2026-04-14 22:14 39.05164 -87.21087 24397 ft 312 kts 91°
2026-04-14 22:14 39.05149 -87.18302 24780 ft 314 kts 91°
2026-04-14 22:15 39.05134 -87.15470 25159 ft 316 kts 91°
2026-04-14 22:15 39.05118 -87.12653 25542 ft 318 kts 91°
2026-04-14 22:15 39.05101 -87.09783 25929 ft 320 kts 91°
2026-04-14 22:15 39.05084 -87.06932 26305 ft 322 kts 91°
2026-04-14 22:16 39.05066 -87.04043 26688 ft 324 kts 91°
2026-04-14 22:16 39.05047 -87.01131 27071 ft 327 kts 92°
2026-04-14 22:16 39.05027 -86.98199 27449 ft 329 kts 91°
2026-04-14 22:16 39.05005 -86.95211 27827 ft 331 kts 92°
2026-04-14 22:17 39.04984 -86.92295 28189 ft 333 kts 92°
2026-04-14 22:17 39.04961 -86.89276 28540 ft 336 kts 92°
2026-04-14 22:17 39.04938 -86.86249 28892 ft 338 kts 92°
2026-04-14 22:17 39.04912 -86.83198 28978 ft 349 kts 92°
2026-04-14 22:18 39.04855 -86.76769 28987 ft 367 kts 92°
2026-04-14 22:18 39.04793 -86.70074 28991 ft 379 kts 92°
2026-04-14 22:19 39.04692 -86.59797 28986 ft 387 kts 92°
2026-04-14 22:20 39.04619 -86.52872 28993 ft 388 kts 92°
2026-04-14 22:20 39.04543 -86.45964 28988 ft 388 kts 92°
2026-04-14 22:21 39.04461 -86.39012 28989 ft 387 kts 92°
2026-04-14 22:21 39.04376 -86.32075 28996 ft 388 kts 92°
2026-04-14 22:22 39.04287 -86.25141 28993 ft 387 kts 92°
2026-04-14 22:22 39.04194 -86.18196 28990 ft 387 kts 92°
2026-04-14 22:23 39.04096 -86.11295 28989 ft 387 kts 92°
2026-04-14 22:23 39.03995 -86.04365 28993 ft 387 kts 92°
2026-04-14 22:24 39.03889 -85.97473 28985 ft 386 kts 92°
2026-04-14 22:24 39.03780 -85.90543 28991 ft 386 kts 92°
2026-04-14 22:25 39.03666 -85.83626 28989 ft 386 kts 92°
2026-04-14 22:25 39.03551 -85.76872 28990 ft 386 kts 92°
2026-04-14 22:26 39.03433 -85.70156 28994 ft 386 kts 92°
2026-04-14 22:26 39.03308 -85.63279 29004 ft 386 kts 92°
2026-04-14 22:27 39.03178 -85.56356 28990 ft 386 kts 92°
2026-04-14 22:27 39.03045 -85.49476 29001 ft 386 kts 92°
2026-04-14 22:28 39.02908 -85.42593 29001 ft 386 kts 92°
2026-04-14 22:28 39.02765 -85.35651 29011 ft 387 kts 92°
2026-04-14 22:29 39.02619 -85.28724 29009 ft 386 kts 92°
2026-04-14 22:29 39.02470 -85.21855 29000 ft 386 kts 92°
2026-04-14 22:30 39.02316 -85.14934 28997 ft 386 kts 92°
2026-04-14 22:30 39.02158 -85.08067 29001 ft 386 kts 92°
2026-04-14 22:31 39.01996 -85.01157 29004 ft 385 kts 92°
2026-04-14 22:31 39.01906 -84.94259 28999 ft 385 kts 86°
2026-04-14 22:32 39.02569 -84.87440 29013 ft 384 kts 83°
2026-04-14 22:32 39.03202 -84.80622 29009 ft 384 kts 82°
2026-04-14 22:33 39.03865 -84.73796 29013 ft 384 kts 83°
2026-04-14 22:33 39.04507 -84.66964 29013 ft 383 kts 83°
2026-04-14 22:34 39.05148 -84.60184 29010 ft 383 kts 83°
2026-04-14 22:34 39.05786 -84.53367 28991 ft 383 kts 83°
2026-04-14 22:35 39.06419 -84.46552 28995 ft 382 kts 83°
2026-04-14 22:35 39.07045 -84.39798 28993 ft 382 kts 83°
2026-04-14 22:36 39.07665 -84.33032 28995 ft 382 kts 83°
2026-04-14 22:36 39.08285 -84.26242 28995 ft 381 kts 83°
2026-04-14 22:37 39.08898 -84.19482 28997 ft 381 kts 83°
2026-04-14 22:37 39.09509 -84.12692 28999 ft 381 kts 83°
2026-04-14 22:38 39.10117 -84.05901 29002 ft 380 kts 83°
2026-04-14 22:38 39.10718 -83.99137 29004 ft 380 kts 83°
2026-04-14 22:39 39.11313 -83.92393 29006 ft 380 kts 83°
2026-04-14 22:39 39.11907 -83.85618 29007 ft 380 kts 83°
2026-04-14 22:40 39.12494 -83.78875 28998 ft 380 kts 83°
2026-04-14 22:40 39.13077 -83.72134 29006 ft 380 kts 83°
2026-04-14 22:41 39.13658 -83.65379 29008 ft 379 kts 83°
2026-04-14 22:41 39.14235 -83.58615 29004 ft 379 kts 83°
2026-04-14 22:42 39.14808 -83.51845 29008 ft 379 kts 83°
2026-04-14 22:42 39.15277 -83.46279 29009 ft 379 kts 83°
2026-04-14 22:43 39.15844 -83.39492 29002 ft 379 kts 83°
2026-04-14 22:43 39.16406 -83.32733 29004 ft 379 kts 83°
2026-04-14 22:44 39.16960 -83.26005 28994 ft 378 kts 83°
2026-04-14 22:44 39.17515 -83.19241 29007 ft 378 kts 83°
2026-04-14 22:45 39.18062 -83.12508 29006 ft 378 kts 83°
2026-04-14 22:45 39.18607 -83.05747 29003 ft 378 kts 83°
2026-04-14 22:46 39.19149 -82.98992 29002 ft 378 kts 83°
2026-04-14 22:46 39.19683 -82.92274 29004 ft 378 kts 84°
2026-04-14 22:47 39.20214 -82.85532 29002 ft 378 kts 83°
2026-04-14 22:47 39.20745 -82.78774 29001 ft 378 kts 83°
2026-04-14 22:48 39.21269 -82.72015 29005 ft 378 kts 84°
2026-04-14 22:48 39.21786 -82.65311 29008 ft 378 kts 84°
2026-04-14 22:49 39.22305 -82.58554 29009 ft 377 kts 84°
2026-04-14 22:49 39.22816 -82.51807 29011 ft 378 kts 84°
2026-04-14 22:50 39.23324 -82.45084 29013 ft 377 kts 84°
2026-04-14 22:50 39.23829 -82.38329 29016 ft 378 kts 84°
2026-04-14 22:51 39.24332 -82.31549 29012 ft 378 kts 84°
2026-04-14 22:51 39.24827 -82.24830 29013 ft 378 kts 84°
2026-04-14 22:52 39.25321 -82.18067 29009 ft 378 kts 84°
2026-04-14 22:52 39.25812 -82.11311 29004 ft 378 kts 84°
2026-04-14 22:53 39.26293 -82.04583 29012 ft 378 kts 84°
2026-04-14 22:53 39.26777 -81.97814 29014 ft 378 kts 84°
2026-04-14 22:54 39.27252 -81.91090 29015 ft 378 kts 84°
2026-04-14 22:54 39.27726 -81.84328 29011 ft 378 kts 84°
2026-04-14 22:55 39.28198 -81.77550 29018 ft 378 kts 84°
2026-04-14 22:55 39.28663 -81.70797 29016 ft 378 kts 84°
2026-04-14 22:56 39.29124 -81.64056 29014 ft 377 kts 84°
2026-04-14 22:56 39.29580 -81.57325 29017 ft 378 kts 84°
2026-04-14 22:57 39.29994 -81.50550 29030 ft 378 kts 90°
2026-04-14 22:57 39.29881 -81.47156 28928 ft 378 kts 94°
2026-04-14 22:57 39.29767 -81.43742 28833 ft 378 kts 92°
2026-04-14 22:58 39.29583 -81.36977 28803 ft 377 kts 93°
2026-04-14 22:58 39.29359 -81.30213 28783 ft 377 kts 93°
2026-04-14 22:59 39.29149 -81.23442 28777 ft 378 kts 93°
2026-04-14 22:59 39.28927 -81.16687 28775 ft 377 kts 93°
2026-04-14 23:00 39.28704 -81.09937 28777 ft 377 kts 93°
2026-04-14 23:00 39.28475 -81.03166 28769 ft 377 kts 93°
2026-04-14 23:01 39.28246 -80.96432 28737 ft 377 kts 93°
2026-04-14 23:01 39.28009 -80.89670 28738 ft 377 kts 93°
2026-04-14 23:02 39.27770 -80.82892 28734 ft 377 kts 93°
2026-04-14 23:02 39.27527 -80.76162 28737 ft 377 kts 93°
2026-04-14 23:03 39.27280 -80.69395 28740 ft 377 kts 93°
2026-04-14 23:03 39.27029 -80.62649 28743 ft 377 kts 93°
2026-04-14 23:04 39.26776 -80.55890 28751 ft 376 kts 93°
2026-04-14 23:04 39.26516 -80.49138 28754 ft 377 kts 93°
2026-04-14 23:05 39.26255 -80.42415 28762 ft 377 kts 93°
2026-04-14 23:05 39.26032 -80.36811 28768 ft 377 kts 93°
2026-04-14 23:06 39.25853 -80.32238 28772 ft 377 kts 93°
2026-04-14 23:06 39.25581 -80.25515 28766 ft 377 kts 93°
2026-04-14 23:06 39.25445 -80.22148 28933 ft 373 kts 93°
2026-04-14 23:07 39.25305 -80.18787 29034 ft 373 kts 93°
2026-04-14 23:07 39.25026 -80.12055 29035 ft 377 kts 93°
2026-04-14 23:08 39.24742 -80.05310 29025 ft 378 kts 93°
2026-04-14 23:08 39.24453 -79.98529 29030 ft 378 kts 93°
2026-04-14 23:09 39.24160 -79.91767 29027 ft 378 kts 93°
2026-04-14 23:09 39.23863 -79.84981 29033 ft 379 kts 94°
2026-04-14 23:10 39.23561 -79.78200 28867 ft 380 kts 94°
2026-04-14 23:10 39.23407 -79.74774 28648 ft 380 kts 94°
2026-04-14 23:10 39.23253 -79.71367 28443 ft 379 kts 94°
2026-04-14 23:10 39.23101 -79.68016 28236 ft 379 kts 94°
2026-04-14 23:11 39.22947 -79.64622 28033 ft 379 kts 94°
2026-04-14 23:11 39.22789 -79.61220 27829 ft 379 kts 94°
2026-04-14 23:11 39.22632 -79.57822 27621 ft 379 kts 94°
2026-04-14 23:11 39.22473 -79.54427 27414 ft 379 kts 94°
2026-04-14 23:12 39.22315 -79.51045 27210 ft 379 kts 94°
2026-04-14 23:12 39.22153 -79.47634 27013 ft 379 kts 94°
2026-04-14 23:12 39.21991 -79.44258 26810 ft 379 kts 93°
2026-04-14 23:12 39.21830 -79.40841 26607 ft 379 kts 93°
2026-04-14 23:13 39.21666 -79.37452 26331 ft 378 kts 94°
2026-04-14 23:13 39.21501 -79.34061 26059 ft 378 kts 94°
2026-04-14 23:13 39.21337 -79.30680 25797 ft 378 kts 93°
2026-04-14 23:13 39.21173 -79.27336 25533 ft 378 kts 93°
2026-04-14 23:14 39.21006 -79.23936 25269 ft 378 kts 93°
2026-04-14 23:14 39.20837 -79.20541 25008 ft 378 kts 94°
2026-04-14 23:14 39.20667 -79.17158 24674 ft 378 kts 93°
2026-04-14 23:14 39.20497 -79.13755 24239 ft 379 kts 93°
2026-04-14 23:15 39.20329 -79.10399 23810 ft 379 kts 93°
2026-04-14 23:15 39.20155 -79.07001 23341 ft 378 kts 93°
2026-04-14 23:15 39.19982 -79.03619 22828 ft 377 kts 93°
2026-04-14 23:15 39.19808 -79.00257 22332 ft 374 kts 93°
2026-04-14 23:16 39.19637 -78.96955 21845 ft 370 kts 93°
2026-04-14 23:16 39.19467 -78.93629 21358 ft 367 kts 93°
2026-04-14 23:16 39.19298 -78.90375 20891 ft 365 kts 93°
2026-04-14 23:16 39.19126 -78.87133 20405 ft 361 kts 93°
2026-04-14 23:17 39.18956 -78.83899 19948 ft 359 kts 93°
2026-04-14 23:17 39.18788 -78.80699 19495 ft 357 kts 94°
2026-04-14 23:17 39.18620 -78.77608 19051 ft 331 kts 94°
2026-04-14 23:18 39.18333 -78.72090 18117 ft 291 kts 93°
2026-04-14 23:18 39.18197 -78.69475 17616 ft 301 kts 93°
2026-04-14 23:18 39.18046 -78.66719 17121 ft 313 kts 93°
2026-04-14 23:18 39.17887 -78.63931 16653 ft 317 kts 93°
2026-04-14 23:19 39.17729 -78.61051 16179 ft 319 kts 93°
2026-04-14 23:19 39.17914 -78.58348 15673 ft 292 kts 71°
2026-04-14 23:19 39.18820 -78.56205 15158 ft 257 kts 43°
2026-04-14 23:19 39.20158 -78.54884 14679 ft 230 kts 25°
2026-04-14 23:20 39.21473 -78.53791 14220 ft 222 kts 30°
2026-04-14 23:20 39.22627 -78.52507 13705 ft 225 kts 38°
2026-04-14 23:20 39.23786 -78.51095 13118 ft 235 kts 37°
2026-04-14 23:20 39.25017 -78.49636 12574 ft 246 kts 38°
2026-04-14 23:21 39.26309 -78.48082 12036 ft 258 kts 38°
2026-04-14 23:21 39.27617 -78.46489 11501 ft 251 kts 39°
2026-04-14 23:21 39.28841 -78.44916 10976 ft 253 kts 45°
2026-04-14 23:21 39.29493 -78.43648 10633 ft 255 kts 59°
2026-04-14 23:22 39.30162 -78.40827 9952 ft 244 kts 82°
2026-04-14 23:22 39.30123 -78.38669 9363 ft 237 kts 98°
2026-04-14 23:22 39.29980 -78.37284 8981 ft 233 kts 98°
2026-04-14 23:22 39.29533 -78.35328 8413 ft 220 kts 120°
2026-04-14 23:23 39.28362 -78.33292 7664 ft 208 kts 139°
2026-04-14 23:23 39.27681 -78.32396 7278 ft 204 kts 140°
2026-04-14 23:23 39.26715 -78.31107 6743 ft 200 kts 139°
2026-04-14 23:23 39.25761 -78.29811 6170 ft 194 kts 137°
2026-04-14 23:24 39.24836 -78.28561 5627 ft 191 kts 139°
2026-04-14 23:24 39.23924 -78.27332 5090 ft 189 kts 139°
2026-04-14 23:24 39.23019 -78.26111 4557 ft 189 kts 139°
2026-04-14 23:24 39.22107 -78.24887 4020 ft 190 kts 140°
2026-04-14 23:25 39.21190 -78.23657 3496 ft 190 kts 140°
2026-04-14 23:25 39.20285 -78.22434 2936 ft 186 kts 141°
2026-04-14 23:25 39.19402 -78.21247 2393 ft 180 kts 140°
2026-04-14 23:25 39.18547 -78.20093 1996 ft 169 kts 140°
2026-04-14 23:26 39.17800 -78.19066 1771 ft 150 kts 138°
2026-04-14 23:26 39.17093 -78.18101 1560 ft 147 kts 138°
2026-04-14 23:26 39.16405 -78.17204 1291 ft 137 kts 136°
2026-04-14 23:26 39.15783 -78.16369 1101 ft 118 kts 133°
2026-04-14 23:27 39.15309 -78.15724 897 ft 88 kts 135°
2026-04-14 23:27 39.14893 -78.15166 794 ft 87 kts 139°
2026-04-14 23:27 39.14506 -78.14643 721 ft 74 kts 138°
2026-04-14 23:27 39.14183 -78.14220 714 ft 26 kts 130°
2026-04-14 23:28 39.14102 -78.14109 712 ft 16 kts 133°
2026-04-14 23:28 39.14030 -78.14012 710 ft 14 kts 134°
2026-04-14 23:28 39.14011 -78.13987 710 ft 0 kts 127°
2026-04-14 23:28 39.13926 -78.13874 706 ft 38 kts 135°
2026-04-14 23:29 39.13799 -78.13797 704 ft 16 kts 222°
2026-04-14 23:29 39.13850 -78.13927 707 ft 23 kts 310°
2026-04-14 23:29 39.13959 -78.14067 710 ft 21 kts 312°
2026-04-14 23:29 39.14037 -78.14184 714 ft 15 kts 259°
2026-04-14 23:30 39.14012 -78.14171 712 ft 7 kts 191°
2026-04-14 23:30 39.14006 -78.14179 712 ft 0 kts 250°